Weather History for South Lake Tahoe, CA

Change the Weather History Date:

Thursday, December 5, 2013

  Actual Average Record
Temperature  
Mean Temperature 19 °F 31 °F  
Max Temperature 31 °F 44 °F 57 °F (1990)
Min Temperature 7 °F 18 °F -8 °F (1972)
Degree Days  
Heating Degree Days 46 34  
Month to date heating degree days 183 168  
Since 1 July heating degree days 2012 2261  
Cooling Degree Days 0 0  
Month to date cooling degree days 0 0  
Year to date cooling degree days 104 31  
Moisture  
Dew Point 5 °F    
Average Humidity 52    
Maximum Humidity 76    
Minimum Humidity 27    
Precipitation  
Precipitation 0.00 in - 2.00 in (1966)
Month to date precipitation 0.13  
Year to date precipitation 8.08  
Sea Level Pressure  
Sea Level Pressure 29.98 in    
Wind  
Wind Speed 4 mph (South)    
Max Wind Speed 13 mph    
Max Gust Speed 17 mph    
T = Trace of Precipitation, MM = Missing Value Source: NWS Daily Summary

Daily Weather History Graph

Daily Weather History Graph

Search for Another Location

Airport:

Trip Planner

Search our weather history database for the weather conditions in past years. The results will help you decide how hot, cold, wet, or windy it might be!

Date:

Astronomy

Dec. 05, 2013 Rise Set
Actual Time 7:03 AM PST 4:37 PM PST
Civil Twilight 6:34 AM PST 5:07 PM PST
Nautical Twilight 6:00 AM PST 5:40 PM PST
Astronomical Twilight 5:28 AM PST 6:12 PM PST
Moon 9:28 AM PST (12/5) 8:03 PM PST (12/5)
Length of Visible Light 10h 33m
Length of Day
9h 34m
Waxing Crescent, 11% of the Moon is Illuminated
Dec 5
Waxing Crescent
Dec 9
First Quarter
Dec 17
Full
Dec 25
Last Quarter
Jan 1
New

Hourly Weather History & Observations

Time (PST) Temp. Windchill Dew Point Humidity Pressure Visibility Wind Dir Wind Speed Gust Speed Precip Events Conditions
12:18 AM 17.1 °F 10.0 °F 8.1 °F 68% 29.87 in - South 4.6 mph - N/A   Overcast
12:50 AM 17.6 °F 10.7 °F 8.6 °F 68% 29.87 in - South 4.6 mph - N/A   Overcast
12:53 AM 17.1 °F 8.7 °F 8.1 °F 68% 29.95 in - SSE 5.8 mph - N/A   Overcast
1:53 AM 17.1 °F 11.7 °F 7.0 °F 65% 29.94 in - South 3.5 mph - N/A   Overcast
2:02 AM 17.1 °F 11.7 °F 7.0 °F 65% 29.87 in - South 3.5 mph - N/A   Overcast
2:13 AM 17.1 °F 11.7 °F 7.0 °F 65% 29.87 in - SSE 3.5 mph - N/A   Overcast
2:53 AM 16.0 °F 7.4 °F 7.0 °F 68% 29.95 in - SSE 5.8 mph - N/A   Overcast
3:08 AM 16.0 °F 8.8 °F 7.0 °F 68% 29.87 in - SSE 4.6 mph - N/A   Overcast
3:30 AM 15.1 °F 6.4 °F 6.1 °F 68% 29.87 in - SSE 5.8 mph - N/A   Overcast
3:53 AM 15.1 °F 6.4 °F 5.0 °F 64% 29.97 in - South 5.8 mph - N/A   Overcast
4:53 AM 10.9 °F 1.4 °F 1.9 °F 67% 30.00 in - SSW 5.8 mph - N/A   Partly Cloudy
5:53 AM 9.0 °F 0.6 °F 1.0 °F 70% 30.03 in - SSW 4.6 mph - N/A   Clear
6:19 AM 8.1 °F -0.5 °F 1.0 °F 73% 29.88 in - SSW 4.6 mph - N/A   Mostly Cloudy
6:53 AM 8.1 °F -0.5 °F -0.0 °F 70% 30.06 in - South 4.6 mph - N/A   Partly Cloudy
7:53 AM 7.0 °F -4.5 °F -0.9 °F 70% 30.07 in - South 6.9 mph - N/A   Clear
8:53 AM 14.0 °F 6.5 °F 3.0 °F 62% 30.04 in - South 4.6 mph - N/A   Clear
9:53 AM 21.0 °F 16.2 °F 7.0 °F 55% 30.01 in - South 3.5 mph - N/A   Clear
10:53 AM 25.0 °F - 3.0 °F 39% 30.00 in - Calm Calm - N/A   Clear
11:53 AM 27.0 °F 21.6 °F -0.9 °F 30% 29.97 in - Variable 4.6 mph - N/A   Clear
12:53 PM 28.9 °F 25.2 °F 3.0 °F 33% 29.95 in - SSE 3.5 mph - N/A   Clear
1:53 PM 30.0 °F - -0.9 °F 27% 29.93 in - Calm Calm - N/A   Clear
2:53 PM 30.0 °F 24.1 °F 3.0 °F 32% 29.95 in - SSW 5.8 mph - N/A   Clear
3:53 PM 28.0 °F 20.8 °F 6.1 °F 39% 29.96 in - South 6.9 mph - N/A   Clear
4:53 PM 24.1 °F 17.0 °F 9.0 °F 53% 30.01 in - SSW 5.8 mph - N/A   Clear
5:53 PM 19.9 °F 14.9 °F 9.0 °F 62% 30.06 in - SSW 3.5 mph - N/A   Clear
6:53 PM 18.0 °F - 9.0 °F 68% 30.09 in - Calm Calm - N/A   Clear
7:53 PM 17.1 °F 11.7 °F 8.1 °F 68% 30.11 in - SW 3.5 mph - N/A   Clear
8:53 PM 14.0 °F - 6.1 °F 71% 30.09 in - Calm Calm - N/A   Clear
9:53 PM 10.9 °F - 3.9 °F 73% 30.08 in - Calm Calm - N/A   Clear
10:53 PM 10.9 °F - 3.0 °F 70% 30.06 in - Calm Calm - N/A   Clear
11:53 PM 15.1 °F 9.4 °F 5.0 °F 64% 30.02 in - SSW 3.5 mph - N/A   Overcast